星链-1351 (STARLINK-1351 )

导读 | 豆包AI

STARLINK-1351是美国太空探索技术公司(SpaceX)星链星座中的一颗卫星,于2020年6月4日发射入轨,归属美国。星链项目旨在构建全球卫星互联网,该卫星承担着为全球尤其是偏远地区提供宽带网络服务的任务,属于低轨通信卫星,推动了全球互联网络基础设施的建设。

基本信息
目录编号:
45697
目录名称:
STARLINK-1351
国际标识:
2020-035AS
轨道中心:
EARTH
卫星名称:
星链-1351
卫星全名:
星链-1351 (STARLINK-1351 )
卫星状态:
在轨 (已飞行2130 天)
发射日期:
2020-06-04 UTC
国别 :
美国 (US)
星等 :
--
轨道信息
数据来源 国际轨道数据
星历时间: 2026-04-04T04:00:02+0800
5小时前
查看轨道信息
半长轴: 6773.68km
偏心率: 0.0004475
轨道倾角: 53.049°
近地点辐角 262.612°
升交点赤经 260.119°
平近点角 343.577°
近地点: 392.511km
远地点: 398.575km
周期: 92.469分钟
每日圈数: 15.572766
详细信息
固有亮度:
5
最大亮度:
2.5
卫星平台:
Starlink V1.0
覆盖范围:
全球
运营商:
太空探索技术公司
运营商所在国:
美国
制造商(研发单位):
太空探索技术公司
制造商所在国:
美国
使用方式:
暂无
卫星简介
星链(Starlink)计划是由太空探索技术公司(SpaceX)提出的一个巨型低轨卫星互联网星座项目,计划在2019年至2024年间在太空搭建由约1.2万颗卫星组成的“星链”网络,其中1584颗将部署在地球上空550千米处的近地轨道,并从2020年开始工作。该卫星仍在工作。
2D轨道图
3D轨道图
轨道高度分析图
轨道倾角分析图
轨道综合分析图
查看轨道综合分析图